Weather in Samagaltay

Russia / Tyva Republic     50°36′01″N   95°00′18″E
temp.,
°C
wind,
m/s
gust,
m/s
humid.,
%
clouds,
%
prec.,
mm/h
press.,
hPa
HPBL,
m
5 march, fri
fri501:00−17e12734 0.0 103320
04:00−17e22690 0.0 103320
07:00−17e12600 0.0 103320
10:00−12sse12641 0.0 103091
13:00−8sse246025 0.0 1028372
16:00−7ssw2376100 0.0 1025264
19:00−12wnw238699 0.0 102825
22:00−12s1192100 0.1 103025
6 march, sat
sat601:00−16ene228892 0.1 103420
04:00−16e22770 0.0 103420
07:00−16e12710 0.0 103620
10:00−11wsw11710 0.0 103466
13:00−8wsw22790 0.0 1031166
16:00−8w11852 0.0 1027100
19:00−14n119114 0.0 102821
22:00−16nne01921 0.0 102820
7 march, sun
sun701:00−16ene11880 0.0 102820
04:00−17ene01826 0.0 102720
07:00−18ne117616 0.0 102820
10:00−12wsw11741 0.0 102756
13:00−9sw217525 0.0 1026147
16:00−9w228515 0.0 1025101
19:00−14nw118749 0.0 102720
22:00−16nne0186100 0.0 102920
8 march, mon
mon801:00−17ne118452 0.0 103020
04:00−16ne11810 0.0 103020
07:00−17nne11820 0.0 103220
10:00−12w11820 0.0 103055
13:00−9w21861 0.0 1028136
16:00−9w21913 0.0 1025108
19:00−15n11905 0.0 102620
22:00−16ne00840 0.0 102720
9 march, tue
tue901:00−16ene01870 0.0 102720
04:00−17nw11850 0.0 102720
07:00−16ne017917 0.0 102920
10:00−11wsw1181100 0.0 103052
13:00−9wsw2182100 0.0 1029159
16:00−8wnw118189 0.0 1028116
19:00−14ne018967 0.0 103021
22:00−14ene11740 0.0 103021